Time,TemperatureF,DewpointF,PressureIn,WindDirection,WindDirectionDegrees,WindSpeedMPH,WindSpeedGustMPH,Humidity,HourlyPrecipIn,Conditions,Clouds,dailyrainin,SolarRadiationWatts/m^2,SoftwareType,DateUTC
2013-02-27 00:11:00,17.0,16.0,-100.00,NNW,327,9.0,15.0,94,0.00,,,0.00,0.000000,,2013-02-27 06:11:00,
2013-02-27 00:21:00,17.0,16.0,-100.00,NNW,327,9.0,15.0,94,0.00,,,0.00,0.000000,,2013-02-27 06:21:00,
2013-02-27 00:33:00,17.0,16.0,-100.00,NNW,327,9.0,15.0,94,0.00,,,0.00,0.000000,,2013-02-27 06:33:00,
2013-02-27 00:41:00,17.0,16.0,-100.00,NNW,327,9.0,15.0,94,0.00,,,0.00,0.000000,,2013-02-27 06:41:00,
2013-02-27 00:51:00,17.0,16.0,-100.00,NNW,327,11.0,17.0,94,0.00,,,0.00,0.000000,,2013-02-27 06:51:00,
2013-02-27 01:12:00,17.0,16.0,-100.00,NNW,327,11.0,17.0,94,0.00,,,0.00,0.000000,,2013-02-27 07:12:00,
2013-02-27 01:21:00,17.0,16.0,-100.00,NNW,327,11.0,17.0,94,0.00,,,0.00,0.000000,,2013-02-27 07:21:00,
2013-02-27 01:32:00,17.0,16.0,-100.00,NNW,327,11.0,17.0,94,0.00,,,0.00,0.000000,,2013-02-27 07:32:00,
2013-02-27 01:42:00,17.0,16.0,-100.00,NNW,327,11.0,17.0,94,0.00,,,0.00,0.000000,,2013-02-27 07:42:00,
2013-02-27 01:51:00,16.0,15.0,-100.00,NW,324,11.0,18.0,94,0.00,,,0.00,0.000000,,2013-02-27 07:51:00,
2013-02-27 02:11:00,16.0,15.0,-100.00,NW,324,11.0,18.0,94,0.00,,,0.00,0.000000,,2013-02-27 08:11:00,
2013-02-27 02:21:00,16.0,15.0,-100.00,NW,324,11.0,18.0,94,0.00,,,0.00,0.000000,,2013-02-27 08:21:00,
2013-02-27 02:32:00,16.0,15.0,-100.00,NW,324,11.0,18.0,94,0.00,,,0.00,0.000000,,2013-02-27 08:32:00,
2013-02-27 02:41:00,16.0,15.0,-100.00,NW,324,11.0,18.0,94,0.00,,,0.00,0.000000,,2013-02-27 08:41:00,
2013-02-27 02:51:00,15.0,13.0,-100.00,NNW,330,12.0,19.0,92,0.00,,,0.00,0.000000,,2013-02-27 08:51:00,
2013-02-27 03:12:00,15.0,13.0,-100.00,NNW,330,12.0,19.0,92,0.00,,,0.00,0.000000,,2013-02-27 09:12:00,
2013-02-27 03:22:00,15.0,13.0,-100.00,NNW,330,12.0,19.0,92,0.00,,,0.00,0.000000,,2013-02-27 09:22:00,
2013-02-27 03:32:00,15.0,13.0,-100.00,NNW,330,12.0,19.0,92,0.00,,,0.00,0.000000,,2013-02-27 09:32:00,
2013-02-27 03:41:00,15.0,13.0,-100.00,NNW,330,12.0,19.0,92,0.00,,,0.00,0.000000,,2013-02-27 09:41:00,
2013-02-27 03:51:00,14.0,12.0,-100.00,NNW,332,14.0,19.0,91,0.00,,,0.00,0.000000,,2013-02-27 09:51:00,
2013-02-27 04:12:00,14.0,12.0,-100.00,NNW,332,14.0,19.0,91,0.00,,,0.00,0.000000,,2013-02-27 10:12:00,
2013-02-27 04:22:00,14.0,12.0,-100.00,NNW,332,14.0,19.0,91,0.00,,,0.00,0.000000,,2013-02-27 10:22:00,
2013-02-27 04:32:00,14.0,12.0,-100.00,NNW,332,14.0,19.0,91,0.00,,,0.00,0.000000,,2013-02-27 10:32:00,
2013-02-27 04:42:00,14.0,12.0,-100.00,NNW,332,14.0,19.0,91,0.00,,,0.00,0.000000,,2013-02-27 10:42:00,
2013-02-27 04:51:00,14.0,12.0,-100.00,NNW,331,9.0,17.0,91,0.00,,,0.00,0.000000,,2013-02-27 10:51:00,
2013-02-27 05:22:00,14.0,12.0,-100.00,NNW,331,9.0,17.0,91,0.00,,,0.00,0.000000,,2013-02-27 11:22:00,
2013-02-27 05:32:00,14.0,12.0,-100.00,NNW,331,9.0,17.0,91,0.00,,,0.00,0.000000,,2013-02-27 11:32:00,
2013-02-27 05:42:00,14.0,12.0,-100.00,NNW,331,9.0,17.0,91,0.00,,,0.00,0.000000,,2013-02-27 11:42:00,
2013-02-27 05:51:00,14.0,11.0,-100.00,NNW,328,12.0,16.0,89,0.00,,,0.00,0.000000,,2013-02-27 11:51:00,
2013-02-27 06:22:00,14.0,11.0,-100.00,NNW,328,12.0,16.0,89,0.00,,,0.00,0.000000,,2013-02-27 12:22:00,
2013-02-27 06:33:00,14.0,11.0,-100.00,NNW,328,12.0,16.0,89,0.00,,,0.00,0.000000,,2013-02-27 12:33:00,
2013-02-27 06:42:00,14.0,11.0,-100.00,NNW,328,12.0,16.0,89,0.00,,,0.00,0.000000,,2013-02-27 12:42:00,
2013-02-27 06:51:00,15.0,12.0,-100.00,NNW,333,15.0,22.0,87,0.00,,,0.00,0.000000,,2013-02-27 12:51:00,
2013-02-27 07:22:00,15.0,12.0,-100.00,NNW,333,15.0,22.0,87,0.00,,,0.00,0.000000,,2013-02-27 13:22:00,
2013-02-27 07:32:00,15.0,12.0,-100.00,NNW,333,15.0,22.0,87,0.00,,,0.00,0.000000,,2013-02-27 13:32:00,
2013-02-27 07:42:00,15.0,12.0,-100.00,NNW,333,15.0,22.0,87,0.00,,,0.00,0.000000,,2013-02-27 13:42:00,
2013-02-27 07:51:00,16.0,13.0,-100.00,NNW,330,15.0,21.0,86,0.00,,,0.00,26.000000,,2013-02-27 13:51:00,
2013-02-27 08:22:00,16.0,13.0,-100.00,NNW,330,15.0,21.0,86,0.00,,,0.00,26.000000,,2013-02-27 14:22:00,
2013-02-27 08:32:00,16.0,13.0,-100.00,NNW,330,15.0,21.0,86,0.00,,,0.00,26.000000,,2013-02-27 14:32:00,
2013-02-27 08:42:00,16.0,13.0,-100.00,NNW,330,15.0,21.0,86,0.00,,,0.00,26.000000,,2013-02-27 14:42:00,
2013-02-27 08:51:00,18.0,13.0,-100.00,NNW,328,14.0,21.0,80,0.00,,,0.00,168.000000,,2013-02-27 14:51:00,
2013-02-27 09:12:00,18.0,13.0,-100.00,NNW,328,14.0,21.0,80,0.00,,,0.00,168.000000,,2013-02-27 15:12:00,
2013-02-27 09:22:00,18.0,13.0,-100.00,NNW,328,14.0,21.0,80,0.00,,,0.00,168.000000,,2013-02-27 15:22:00,
2013-02-27 09:32:00,18.0,13.0,-100.00,NNW,328,14.0,21.0,80,0.00,,,0.00,168.000000,,2013-02-27 15:32:00,
2013-02-27 09:42:00,18.0,13.0,-100.00,NNW,328,14.0,21.0,80,0.00,,,0.00,168.000000,,2013-02-27 15:42:00,
2013-02-27 09:51:00,20.0,14.0,-100.00,NW,326,15.0,21.0,76,0.00,,,0.00,355.000000,,2013-02-27 15:51:00,
2013-02-27 10:12:00,20.0,14.0,-100.00,NW,326,15.0,21.0,76,0.00,,,0.00,355.000000,,2013-02-27 16:12:00,
2013-02-27 10:22:00,20.0,14.0,-100.00,NW,326,15.0,21.0,76,0.00,,,0.00,355.000000,,2013-02-27 16:22:00,
2013-02-27 10:32:00,20.0,14.0,-100.00,NW,326,15.0,21.0,76,0.00,,,0.00,355.000000,,2013-02-27 16:32:00,
2013-02-27 10:42:00,20.0,14.0,-100.00,NW,326,15.0,21.0,76,0.00,,,0.00,355.000000,,2013-02-27 16:42:00,
2013-02-27 10:51:00,22.0,16.0,-100.00,NW,325,16.0,21.0,76,0.00,,,0.00,539.000000,,2013-02-27 16:51:00,
2013-02-27 11:21:00,22.0,16.0,-100.00,NW,325,16.0,21.0,76,0.00,,,0.00,539.000000,,2013-02-27 17:21:00,
2013-02-27 11:32:00,22.0,16.0,-100.00,NW,325,16.0,21.0,76,0.00,,,0.00,539.000000,,2013-02-27 17:32:00,
2013-02-27 11:42:00,22.0,16.0,-100.00,NW,325,16.0,21.0,76,0.00,,,0.00,539.000000,,2013-02-27 17:42:00,
2013-02-27 11:51:00,24.0,17.0,-100.00,NNW,328,16.0,25.0,75,0.00,,,-99.99,607.000000,,2013-02-27 17:51:00,
2013-02-27 12:11:00,24.0,17.0,-100.00,NNW,328,16.0,25.0,75,0.00,,,-99.99,607.000000,,2013-02-27 18:11:00,
2013-02-27 12:22:00,24.0,17.0,-100.00,NNW,328,16.0,25.0,75,0.00,,,-99.99,607.000000,,2013-02-27 18:22:00,
2013-02-27 12:32:00,24.0,17.0,-100.00,NNW,328,16.0,25.0,75,0.00,,,-99.99,607.000000,,2013-02-27 18:32:00,
2013-02-27 12:42:00,24.0,17.0,-100.00,NNW,328,16.0,25.0,75,0.00,,,-99.99,607.000000,,2013-02-27 18:42:00,
2013-02-27 12:51:00,26.0,19.0,-100.00,NW,325,14.0,23.0,73,0.00,,,0.00,676.000000,,2013-02-27 18:51:00,
2013-02-27 13:21:00,26.0,19.0,-100.00,NW,325,14.0,23.0,73,0.00,,,0.00,676.000000,,2013-02-27 19:21:00,
2013-02-27 13:32:00,26.0,19.0,-100.00,NW,325,14.0,23.0,73,0.00,,,0.00,676.000000,,2013-02-27 19:32:00,
2013-02-27 13:42:00,26.0,19.0,-100.00,NW,325,14.0,23.0,73,0.00,,,0.00,676.000000,,2013-02-27 19:42:00,
2013-02-27 13:51:00,25.0,19.0,-100.00,NW,321,18.0,24.0,77,0.00,,,0.00,694.000000,,2013-02-27 19:51:00,
2013-02-27 14:22:00,25.0,19.0,-100.00,NW,321,18.0,24.0,77,0.00,,,0.00,694.000000,,2013-02-27 20:22:00,
2013-02-27 14:32:00,25.0,19.0,-100.00,NW,321,18.0,24.0,77,0.00,,,0.00,694.000000,,2013-02-27 20:32:00,
2013-02-27 14:42:00,25.0,19.0,-100.00,NW,321,18.0,24.0,77,0.00,,,0.00,694.000000,,2013-02-27 20:42:00,
2013-02-27 14:51:00,25.0,19.0,-100.00,NW,320,18.0,26.0,78,0.00,,,-99.99,556.000000,,2013-02-27 20:51:00,
2013-02-27 15:11:00,25.0,19.0,-100.00,NW,320,18.0,26.0,78,0.00,,,-99.99,556.000000,,2013-02-27 21:11:00,
2013-02-27 15:22:00,25.0,19.0,-100.00,NW,320,18.0,26.0,78,0.00,,,-99.99,556.000000,,2013-02-27 21:22:00,
2013-02-27 15:32:00,25.0,19.0,-100.00,NW,320,18.0,26.0,78,0.00,,,-99.99,556.000000,,2013-02-27 21:32:00,
2013-02-27 15:42:00,25.0,19.0,-100.00,NW,320,18.0,26.0,78,0.00,,,-99.99,556.000000,,2013-02-27 21:42:00,
2013-02-27 15:51:00,26.0,20.0,-100.00,NNW,327,15.0,26.0,79,0.00,,,0.00,418.000000,,2013-02-27 21:51:00,
2013-02-27 16:11:00,26.0,20.0,-100.00,NNW,327,15.0,26.0,79,0.00,,,0.00,418.000000,,2013-02-27 22:11:00,
2013-02-27 16:21:00,26.0,20.0,-100.00,NNW,327,15.0,26.0,79,0.00,,,0.00,418.000000,,2013-02-27 22:21:00,
2013-02-27 16:32:00,26.0,20.0,-100.00,NNW,327,15.0,26.0,79,0.00,,,0.00,418.000000,,2013-02-27 22:32:00,
2013-02-27 16:42:00,26.0,20.0,-100.00,NNW,327,15.0,26.0,79,0.00,,,0.00,418.000000,,2013-02-27 22:42:00,
2013-02-27 16:51:00,27.0,21.0,-100.00,NW,323,13.0,23.0,79,0.00,,,0.00,298.000000,,2013-02-27 22:51:00,
2013-02-27 17:21:00,27.0,21.0,-100.00,NW,323,13.0,23.0,79,0.00,,,0.00,298.000000,,2013-02-27 23:21:00,
2013-02-27 17:32:00,27.0,21.0,-100.00,NW,323,13.0,23.0,79,0.00,,,0.00,298.000000,,2013-02-27 23:32:00,
2013-02-27 17:42:00,27.0,21.0,-100.00,NW,323,13.0,23.0,79,0.00,,,0.00,298.000000,,2013-02-27 23:42:00,
2013-02-27 17:51:00,25.0,22.0,-100.00,NNW,330,16.0,26.0,87,0.00,,,0.00,79.000000,,2013-02-27 23:51:00,
2013-02-27 18:21:00,25.0,22.0,-100.00,NNW,330,16.0,26.0,87,0.00,,,0.00,79.000000,,2013-02-28 00:21:00,
2013-02-27 18:32:00,25.0,22.0,-100.00,NNW,330,16.0,26.0,87,0.00,,,0.00,79.000000,,2013-02-28 00:32:00,
2013-02-27 18:42:00,25.0,22.0,-100.00,NNW,330,16.0,26.0,87,0.00,,,0.00,79.000000,,2013-02-28 00:42:00,
2013-02-27 18:51:00,26.0,23.0,-100.00,NNW,335,17.0,30.0,89,0.00,,,0.00,3.000000,,2013-02-28 00:51:00,
2013-02-27 19:22:00,26.0,23.0,-100.00,NNW,335,17.0,30.0,89,0.00,,,0.00,3.000000,,2013-02-28 01:22:00,
2013-02-27 19:32:00,26.0,23.0,-100.00,NNW,335,17.0,30.0,89,0.00,,,0.00,3.000000,,2013-02-28 01:32:00,
2013-02-27 19:42:00,26.0,23.0,-100.00,NNW,335,17.0,30.0,89,0.00,,,0.00,3.000000,,2013-02-28 01:42:00,
2013-02-27 19:51:00,26.0,24.0,-100.00,NNW,335,20.0,29.0,91,0.00,,,0.00,0.000000,,2013-02-28 01:51:00,
2013-02-27 20:11:00,26.0,24.0,-100.00,NNW,335,20.0,29.0,91,0.00,,,0.00,0.000000,,2013-02-28 02:11:00,
2013-02-27 20:22:00,26.0,24.0,-100.00,NNW,335,20.0,29.0,91,0.00,,,0.00,0.000000,,2013-02-28 02:22:00,
2013-02-27 20:32:00,26.0,24.0,-100.00,NNW,335,20.0,29.0,91,0.00,,,0.00,0.000000,,2013-02-28 02:32:00,
2013-02-27 20:41:00,26.0,24.0,-100.00,NNW,335,20.0,29.0,91,0.00,,,0.00,0.000000,,2013-02-28 02:41:00,
2013-02-27 20:51:00,25.0,22.0,-100.00,NNW,337,17.0,27.0,88,0.00,,,0.00,0.000000,,2013-02-28 02:51:00,
2013-02-27 21:21:00,25.0,22.0,-100.00,NNW,337,17.0,27.0,88,0.00,,,0.00,0.000000,,2013-02-28 03:21:00,
2013-02-27 21:32:00,25.0,22.0,-100.00,NNW,337,17.0,27.0,88,0.00,,,0.00,0.000000,,2013-02-28 03:32:00,
2013-02-27 21:42:00,25.0,22.0,-100.00,NNW,337,17.0,27.0,88,0.00,,,0.00,0.000000,,2013-02-28 03:42:00,
2013-02-27 21:51:00,24.0,21.0,-100.00,NNW,338,17.0,26.0,88,0.00,,,0.00,0.000000,,2013-02-28 03:51:00,
2013-02-27 22:11:00,24.0,21.0,-100.00,NNW,338,17.0,26.0,88,0.00,,,0.00,0.000000,,2013-02-28 04:11:00,
2013-02-27 22:21:00,24.0,21.0,-100.00,NNW,338,17.0,26.0,88,0.00,,,0.00,0.000000,,2013-02-28 04:21:00,
2013-02-27 22:32:00,24.0,21.0,-100.00,NNW,338,17.0,26.0,88,0.00,,,0.00,0.000000,,2013-02-28 04:32:00,
2013-02-27 22:42:00,24.0,21.0,-100.00,NNW,338,17.0,26.0,88,0.00,,,0.00,0.000000,,2013-02-28 04:42:00,
2013-02-27 22:51:00,22.0,19.0,-100.00,NNW,338,16.0,23.0,87,0.00,,,0.00,0.000000,,2013-02-28 04:51:00,
2013-02-27 23:11:00,22.0,19.0,-100.00,NNW,338,16.0,23.0,87,0.00,,,0.00,0.000000,,2013-02-28 05:11:00,
2013-02-27 23:22:00,22.0,19.0,-100.00,NNW,338,16.0,23.0,87,0.00,,,0.00,0.000000,,2013-02-28 05:22:00,
2013-02-27 23:32:00,22.0,19.0,-100.00,NNW,338,16.0,23.0,87,0.00,,,0.00,0.000000,,2013-02-28 05:32:00,
2013-02-27 23:42:00,22.0,19.0,-100.00,NNW,338,16.0,23.0,87,0.00,,,0.00,0.000000,,2013-02-28 05:42:00,
2013-02-27 23:51:00,21.0,18.0,-100.00,NNW,332,13.0,22.0,88,0.00,,,0.00,0.000000,,2013-02-28 05:51:00,